{"data":{"norad_id":40110,"epoch":"2026-09-20T04:49:33.012192Z","epoch_age_seconds":63106,"freshness":"FRESH","line1":"1 40110U 14047B   26263.20107653  .00000008  00000+0  10353-3 0  9997","line2":"2 40110  63.3767 135.0289 0398405  15.2307 346.0312 13.45447071595065","mean_motion":13.45447071,"eccentricity":0.0398405,"inclination_deg":63.3767,"raan_deg":135.0289,"arg_perigee_deg":15.2307,"mean_anomaly_deg":346.0312,"bstar":0.00010353,"rev_number":59506,"period_min":107.02762160162,"perigee_km":791.56017531798,"apogee_km":1386.5536536166,"semimajor_km":7467.1939144673,"source":"CELESTRAK","updated_at":"2026-09-20T09:00:14.019642Z"}}